Waupaca, WI

11:15 AM CDT on March 24, 2017 (GMT -0500)
Waupaca Municipal

Weather History for KPCZ - January, 2014

Change the Weather History Date:

Monday, January 13, 2014

  Actual Average Record
Temperature  
Mean Temperature 30 °F -  
Max Temperature 39 °F 25 °F 52 °F (1961)
Min Temperature 22 °F 7 °F -18 °F (1954)
Degree Days  
Heating Degree Days 34    
Moisture  
Dew Point 26 °F    
Average Humidity 72    
Maximum Humidity 83    
Minimum Humidity 56    
Precipitation  
Precipitation 0.00 in - - ()
Sea Level Pressure  
Sea Level Pressure 29.55 in    
Wind  
Wind Speed - (North)    
Max Wind Speed -    
Max Gust Speed -    
Visibility 10 miles    
Events      
Averages and records for this station are not official NWS values.
T = Trace of Precipitation, MM = Missing Value Source: NWS Daily Summary

Daily Weather History Graph

Daily Weather History Graph

Search for Another Location

Airport or City:

Trip Planner

Search our weather history database for the weather conditions in past years. The results will help you decide how hot, cold, wet, or windy it might be!

Date:

Astronomy

Jan. 13, 2014 Rise Set
Actual Time 7:29 AM CST 4:40 PM CST
Civil Twilight 6:57 AM CST 5:12 PM CST
Nautical Twilight 6:21 AM CST 5:48 PM CST
Astronomical Twilight 5:46 AM CST 6:23 PM CST
Moon 2:56 PM CST (1/13) 5:17 AM CST (1/13)
Length of Visible Light 10h 15m
Length of Day
9h 10m
Waxing Gibbous, 95% of the Moon is Illuminated
Jan 13
Waxing Gibbous
Jan 15
Full
Jan 23
Last Quarter
Jan 30
New
Feb 6
First Quarter

Hourly Weather History & Observations

Time (CST) Temp. Dew Point Humidity Pressure Visibility Wind Dir Wind Speed Gust Speed Precip Events Conditions
12:15 AM 37.4 °F 30.7 °F 77% 29.48 in 10.0 mi North - - N/A   Overcast
12:35 AM 37.0 °F 30.7 °F 78% 29.48 in 10.0 mi North - - N/A   Light Drizzle
12:55 AM 36.7 °F 30.7 °F 79% 29.49 in 10.0 mi North - - N/A   Overcast
1:15 AM 36.9 °F 30.7 °F 79% 29.49 in 10.0 mi North - - N/A   Overcast
1:35 AM 36.7 °F 30.9 °F 80% 29.50 in 10.0 mi North - - N/A   Overcast
1:55 AM 36.7 °F 30.9 °F 80% 29.50 in 10.0 mi North - - N/A   Overcast
2:15 AM 36.7 °F 30.9 °F 80% 29.49 in 10.0 mi North - - N/A   Overcast
2:35 AM 36.7 °F 30.9 °F 80% 29.49 in 10.0 mi North - - N/A   Overcast
2:55 AM 36.7 °F 30.9 °F 80% 29.49 in 10.0 mi North - - N/A   Overcast
3:15 AM 36.7 °F 30.9 °F 80% 29.48 in 10.0 mi North - - N/A   Overcast
3:35 AM 36.5 °F 30.9 °F 80% 29.48 in 10.0 mi North - - N/A   Overcast
3:55 AM 36.0 °F 31.1 °F 82% 29.49 in 10.0 mi North - - N/A   Overcast
4:15 AM 36.3 °F 31.1 °F 81% 29.48 in 10.0 mi North - - N/A   Overcast
4:35 AM 35.8 °F 30.9 °F 82% 29.48 in 10.0 mi North - - N/A   Overcast
4:55 AM 35.8 °F 30.9 °F 82% 29.48 in 10.0 mi North - - N/A   Overcast
5:15 AM 35.8 °F 30.9 °F 82% 29.47 in 10.0 mi North - - N/A   Overcast
5:35 AM 35.6 °F 30.9 °F 83% 29.47 in 10.0 mi North - - N/A   Overcast
5:55 AM 35.8 °F 31.1 °F 83% 29.47 in 10.0 mi North - - N/A   Overcast
6:15 AM 36.7 °F 31.1 °F 80% 29.48 in 10.0 mi North - - N/A   Overcast
6:35 AM 36.7 °F 31.1 °F 80% 29.48 in 10.0 mi North - - N/A   Overcast
6:55 AM 37.2 °F 31.5 °F 80% 29.49 in 10.0 mi North - - N/A   Overcast
7:15 AM 37.4 °F 31.1 °F 78% 29.49 in 10.0 mi North - - N/A   Overcast
7:35 AM 36.9 °F 30.9 °F 79% 29.49 in 10.0 mi North - - N/A   Overcast
7:55 AM 37.4 °F 31.1 °F 78% 29.49 in 10.0 mi North - - N/A   Mostly Cloudy
8:15 AM 37.6 °F 30.9 °F 77% 29.49 in 10.0 mi North - - N/A   Scattered Clouds
8:35 AM 38.1 °F 30.9 °F 75% 29.50 in 10.0 mi North - - N/A   Mostly Cloudy
8:55 AM 38.3 °F 30.7 °F 74% 29.50 in 10.0 mi North - - N/A   Scattered Clouds
9:15 AM 38.5 °F 30.7 °F 74% 29.51 in 10.0 mi North - - N/A   Mostly Cloudy
9:35 AM 39.4 °F 30.7 °F 71% 29.50 in 10.0 mi North - - N/A   Overcast
9:55 AM 39.2 °F 30.7 °F 72% 29.51 in 10.0 mi North - - N/A   Overcast
10:15 AM 39.2 °F 30.4 °F 71% 29.52 in 10.0 mi North - - N/A   Scattered Clouds
10:35 AM 38.5 °F 30.0 °F 72% 29.52 in 10.0 mi North - - N/A   Clear
10:55 AM 39.4 °F 30.0 °F 69% 29.52 in 10.0 mi North - - N/A   Scattered Clouds
11:15 AM 37.9 °F 29.5 °F 72% 29.52 in 10.0 mi North - - N/A   Scattered Clouds
11:35 AM 37.0 °F 28.9 °F 73% 29.51 in 10.0 mi North - - N/A   Overcast
11:55 AM 36.5 °F 28.8 °F 74% 29.52 in 10.0 mi North - - N/A   Overcast
12:15 PM 35.8 °F 28.8 °F 76% 29.52 in 10.0 mi North - - N/A   Overcast
12:35 PM 35.1 °F 28.0 °F 76% 29.53 in 10.0 mi North - - N/A   Overcast
12:55 PM 34.9 °F 27.3 °F 74% 29.53 in 10.0 mi North - - N/A   Overcast
1:15 PM 34.7 °F 26.6 °F 72% 29.53 in 10.0 mi North - - N/A   Overcast
1:35 PM 34.9 °F 25.0 °F 67% 29.54 in 10.0 mi North - - N/A   Overcast
1:55 PM 35.2 °F 24.8 °F 66% 29.54 in 10.0 mi North - - N/A   Overcast
2:15 PM 35.8 °F 24.8 °F 64% 29.54 in 10.0 mi North - - N/A   Overcast
2:35 PM 35.2 °F 23.9 °F 63% 29.55 in 10.0 mi North - - N/A   Mostly Cloudy
2:55 PM 36.5 °F 24.1 °F 61% 29.56 in 10.0 mi North - - N/A   Clear
3:15 PM 36.5 °F 23.7 °F 60% 29.57 in 10.0 mi North - - N/A   Clear
3:35 PM 35.8 °F 21.4 °F 56% 29.58 in 10.0 mi North - - N/A   Clear
3:55 PM 35.8 °F 22.1 °F 58% 29.58 in 10.0 mi North - - N/A   Clear
4:15 PM 34.9 °F 21.9 °F 59% 29.58 in 10.0 mi North - - N/A   Clear
4:35 PM 34.0 °F 21.9 °F 61% 29.59 in 10.0 mi North - - N/A   Clear
4:55 PM 33.3 °F 21.9 °F 63% 29.60 in 10.0 mi North - - N/A   Clear
5:35 PM 32.0 °F 21.0 °F 64% 29.61 in 10.0 mi North - - N/A   Clear
5:55 PM 30.9 °F 19.9 °F 64% 29.62 in 10.0 mi North - - N/A   Clear
6:15 PM 30.9 °F 18.7 °F 61% 29.63 in 10.0 mi North - - N/A   Clear
6:35 PM 30.2 °F 18.3 °F 61% 29.63 in 10.0 mi North - - N/A   Clear
6:55 PM 29.3 °F 17.6 °F 62% 29.64 in 10.0 mi North - - N/A   Clear
7:15 PM 28.9 °F 17.4 °F 62% 29.64 in 10.0 mi North - - N/A   Clear
7:35 PM 27.5 °F 17.1 °F 65% 29.64 in 10.0 mi North - - N/A   Clear
7:55 PM 26.6 °F 16.7 °F 66% 29.64 in 10.0 mi North - - N/A   Clear
8:15 PM 27.3 °F 17.4 °F 66% 29.65 in 10.0 mi North - - N/A   Clear
8:35 PM 26.8 °F 17.2 °F 67% 29.65 in 10.0 mi North - - N/A   Scattered Clouds
8:55 PM 26.8 °F 17.6 °F 68% 29.66 in 10.0 mi North - - N/A   Clear
9:15 PM 26.6 °F 17.2 °F 68% 29.66 in 10.0 mi North - - N/A   Clear
9:35 PM 26.6 °F 16.9 °F 67% 29.67 in 10.0 mi North - - N/A   Clear
9:55 PM 25.0 °F 16.2 °F 69% 29.68 in 10.0 mi North - - N/A   Clear
10:15 PM 24.8 °F 16.3 °F 70% 29.68 in 10.0 mi North - - N/A   Clear
10:35 PM 24.4 °F 16.5 °F 72% 29.68 in 10.0 mi North - - N/A   Clear
10:55 PM 23.9 °F 16.0 °F 72% 29.68 in 10.0 mi North - - N/A   Clear
11:15 PM 23.7 °F 16.5 °F 74% 29.67 in 10.0 mi North - - N/A   Clear
11:35 PM 22.1 °F 15.4 °F 76% 29.67 in 10.0 mi North - - N/A   Scattered Clouds
11:55 PM 22.3 °F 16.2 °F 77% 29.67 in 10.0 mi North - - N/A   Scattered Clouds